Find OneWeb SL0594

NORAD ID: 54660 Int'l Des: 2022-166 Owner: ONEWEBN Country: UK Constellation: oneweb operational
又名: ONEWEB-0594 spacetrack, celestrak
LEOCIRCULARPOLARONEWEB_TYPE

当前视图

正在加载3D地球...

About OneWeb SL0594

OneWeb SL0594 (NORAD 54660) is a oneweb constellation satellite launched Dec 8, 2022 by ONEWEBN of UK. It operates in LEO, CIRCULAR, POLAR, ONEWEB_TYPE orbit with a mass of 148.00 kg.

即将过境

Passes for default location (London). Set your location on the main map for personalized predictions.

高度历史

Loading altitude history...

两行轨道根数

1 54660U 22166U 26264.18659280 -.00000067 00000-0 -19280-3 0 9995
2 54660 87.9271 224.8815 0001977 76.2754 283.8600 13.21823875184248
Epoch: Sep 21, 2026 • Age: 8 hours

当前状态

高度 1182.0 km
远地点 / 近地点 N/A
速度 7.27 km/s
星下点 35.62°N, 144.16°W
发射日期 Dec 8, 2022
运行时间 3.7 years
类型 internet

技术详情

分类 Payload
质量 148.00 kg
干质量 140.00 kg
长度 1.30 m
直径 1.00 m
跨度 5.00 m
形状 ? Trapezoid+2 pan
制造商 ONEWUS
平台类型 ARROW
阶段状态 In Orbit
所有者/国家 ONEWEBN/UK

Most Searched